Regional Weather Roundup
Issued by NWS Bismarck, ND

Home | Current Version | Previous Version | Text Only | Print | Product List | Glossary On
Versions: 1 2 3 4 5 6 7 8 9 10 11 12 13 14 15 16 17 18 19 20 21 22 23 24 25 26 27 28 29 30 31 32 33 34 35 36 37 38 39 40 41 42 43 44 45 46 47 48 49 50
000
ASUS43 KBIS 201410
RWRBIS

NWR BROADCAST TEXT
NATIONAL WEATHER SERVICE BISMARCK ND
900 AM CDT SUN AUG 20 2017

NOTE: "FAIR" INDICATES FEW OR NO CLOUDS BELOW 12,000 FEET WITH NO
SIGNIFICANT WEATHER AND/OR OBSTRUCTIONS TO VISIBILITY.


CITY           SKY/WX    TMP DP  RH WIND       PRES   REMARKS
WILLISTON      CLOUDY    53  42  66 CALM      30.09R
MINOT          SUNNY     59  43  55 SW6       30.04R
MINOT AFB      SUNNY     58  43  56 W8        30.03R
BISMARCK       PTSUNNY   62  48  60 NW3       30.05S
DICKINSON      CLOUDY    56  44  64 N6        30.07R
GARRISON         N/A     57  46  66 NW6       30.06R
HETTINGER ARPT CLOUDY    59  41  51 NE12      30.09R
JAMESTOWN      CLOUDY    60  49  66 NW7       30.01R
CARRINGTON     FAIR      55  48  76 NW12      30.03S
LINTON         FAIR      59  48  67 CALM      30.05S
TIOGA          FAIR      52  45  76 CALM      30.09R
$$

CITY           SKY/WX    TMP DP  RH WIND       PRES   REMARKS
GRAND FORKS    CLOUDY    64  51  62 NW12      29.94R
GRAND FORKS AF   N/A     61  49  64 NW9G17    29.95R
DEVILS LAKE    SUNNY     61  49  64 W12       30.01S
FARGO          CLOUDY    62  52  69 NW9       29.96R
CANDO          FAIR      59  54  82 W8        30.03R
CAVALIER       FAIR      63  48  59 W7G14     29.94R
GWINNER        SUNNY     63  54  72 NW12      30.00R
ROLLA          FAIR      61  46  59 NW9       30.01R
WALHALLA       FAIR      63  63 100 W9        29.94R
$$

CITY           SKY/WX    TMP DP  RH WIND       PRES   REMARKS
ABERDEEN       CLOUDY    63  55  75 N15       30.00R
MOBRIDGE       CLOUDY    61  50  67 N9        30.00R
BUFFALO          N/A     59  44  57 S3        30.05R
RAPID CITY     SUNNY     65  49  56 NW7       30.09R
GLASGOW        CLOUDY    54  33  45 NE5       30.08R
SIDNEY         CLOUDY    53  42  66 CALM      30.10R
WOLF POINT     MOSUNNY   52  35  52 CALM      30.09R
GLENDIVE       CLOUDY    56  36  47 N6        30.08S
MILES CITY     CLOUDY    59  40  49 NE12      30.06R
BAKER          CLOUDY    59  38  45 E9        30.09R
$$

CITY           SKY/WX    TMP DP  RH WIND       PRES   REMARKS
BILLINGS       MOSUNNY   58  37  45 NW9       30.07R
GREAT FALLS    CLOUDY    58  38  47 SW12      30.06R
REGINA         PTSUNNY   52  41  66 SW2       30.04R
ESTEVAN        PTSUNNY   54  41  62 NW6       30.05S
$$





USA.gov is the U.S. government's official web portal to all federal, state and local government web resources and services.